AZA1961 LIEO-LIRQ

Flight info

Callsign AZA1961
Flight time 0h 33m
Altitude 26000
Route OLBEK Q125 NEMIT DCT MAREL
Aircraft A319/M-SDE3FGHIRWY/LB1

Departure

Time 2026-05-06 08:08
Airport Olbia Costa Smeralda Airport (LIEO)

Arrival

Time 2026-05-06 08:41
Airport Florence Airport, Peretola (LIRQ)
Time Latitude Longitude Altitude Speed Heading
2026-05-06 08:00 40.90244 9.51869 34 ft 0 kts 56°
2026-05-06 08:00 40.90242 9.51866 34 ft 2 kts 56°
2026-05-06 08:01 40.90232 9.51851 31 ft 2 kts 70°
2026-05-06 08:01 40.90232 9.51830 34 ft 2 kts 148°
2026-05-06 08:01 40.90234 9.51826 34 ft 1 kts 175°
2026-05-06 08:01 40.90215 9.51828 34 ft 4 kts 172°
2026-05-06 08:02 40.90170 9.51908 32 ft 15 kts 100°
2026-05-06 08:02 40.90226 9.52059 34 ft 22 kts 56°
2026-05-06 08:02 40.90325 9.52254 34 ft 29 kts 56°
2026-05-06 08:02 40.90356 9.52292 34 ft 5 kts
2026-05-06 08:03 40.90352 9.52302 34 ft 1 kts 177°
2026-05-06 08:03 40.90345 9.52285 34 ft 5 kts 234°
2026-05-06 08:03 40.90310 9.52219 34 ft 13 kts 234°
2026-05-06 08:03 40.90241 9.52090 33 ft 21 kts 234°
2026-05-06 08:04 40.90139 9.51898 34 ft 30 kts 236°
2026-05-06 08:04 40.90004 9.51637 34 ft 35 kts 236°
2026-05-06 08:04 40.89974 9.51579 33 ft 6 kts 236°
2026-05-06 08:04 40.89936 9.51505 34 ft 14 kts 236°
2026-05-06 08:05 40.89865 9.51368 34 ft 22 kts 236°
2026-05-06 08:05 40.89760 9.51165 34 ft 31 kts 236°
2026-05-06 08:05 40.89654 9.50960 34 ft 13 kts 236°
2026-05-06 08:05 40.89586 9.50833 34 ft 21 kts 234°
2026-05-06 08:06 40.89483 9.50641 34 ft 30 kts 235°
2026-05-06 08:06 40.89386 9.50463 34 ft 17 kts 226°
2026-05-06 08:06 40.89286 9.50479 34 ft 20 kts 118°
2026-05-06 08:06 40.89273 9.50615 35 ft 4 kts 42°
2026-05-06 08:07 40.89292 9.50651 34 ft 0 kts 57°
2026-05-06 08:07 40.89300 9.50667 33 ft 18 kts 57°
2026-05-06 08:07 40.89509 9.51074 33 ft 87 kts 55°
2026-05-06 08:07 40.89975 9.51964 33 ft 146 kts 55°
2026-05-06 08:08 40.90611 9.53157 405 ft 160 kts 54°
2026-05-06 08:08 40.91230 9.54332 1123 ft 154 kts 55°
2026-05-06 08:08 40.91863 9.55541 1552 ft 169 kts 54°
2026-05-06 08:08 40.92579 9.56903 1862 ft 192 kts 55°
2026-05-06 08:09 40.93387 9.58435 2186 ft 215 kts 55°
2026-05-06 08:09 40.94298 9.60157 2576 ft 240 kts 54°
2026-05-06 08:09 40.95286 9.62016 3296 ft 253 kts 54°
2026-05-06 08:09 40.96321 9.63955 4121 ft 262 kts 54°
2026-05-06 08:10 40.97385 9.65947 4987 ft 269 kts 53°
2026-05-06 08:10 40.98610 9.67837 5860 ft 273 kts 39°
2026-05-06 08:10 40.99644 9.68826 6290 ft 284 kts 27°
2026-05-06 08:10 41.01468 9.69985 6943 ft 296 kts 21°
2026-05-06 08:11 41.03355 9.71145 7795 ft 302 kts 22°
2026-05-06 08:11 41.05274 9.72332 8673 ft 307 kts 22°
2026-05-06 08:11 41.07220 9.73551 9540 ft 312 kts 22°
2026-05-06 08:11 41.09204 9.74804 10246 ft 323 kts 22°
2026-05-06 08:12 41.11306 9.76133 10528 ft 347 kts 22°
2026-05-06 08:12 41.13558 9.77558 10757 ft 370 kts 23°
2026-05-06 08:12 41.15953 9.79070 10914 ft 393 kts 22°
2026-05-06 08:12 41.18491 9.80673 11047 ft 414 kts 22°
2026-05-06 08:13 41.21140 9.82351 11316 ft 428 kts 23°
2026-05-06 08:13 41.23846 9.84068 11900 ft 432 kts 23°
2026-05-06 08:13 41.26610 9.85622 12564 ft 432 kts 15°
2026-05-06 08:13 41.29474 9.86690 13185 ft 434 kts 12°
2026-05-06 08:14 41.32401 9.87743 13801 ft 438 kts 12°
2026-05-06 08:14 41.35358 9.88800 14336 ft 441 kts 12°
2026-05-06 08:14 41.38341 9.89866 14827 ft 445 kts 12°
2026-05-06 08:14 41.41350 9.90945 15328 ft 449 kts 12°
2026-05-06 08:15 41.44374 9.92035 15824 ft 452 kts 12°
2026-05-06 08:15 41.47417 9.93137 16317 ft 455 kts 12°
2026-05-06 08:15 41.50491 9.94252 16798 ft 458 kts 12°
2026-05-06 08:15 41.53582 9.95373 17262 ft 461 kts 12°
2026-05-06 08:16 41.56687 9.96499 17735 ft 464 kts 12°
2026-05-06 08:16 41.59815 9.97637 18178 ft 468 kts 12°
2026-05-06 08:16 41.62968 9.98789 18574 ft 471 kts 12°
2026-05-06 08:16 41.66099 9.99930 18959 ft 473 kts 12°
2026-05-06 08:17 41.69290 10.01093 19332 ft 476 kts 12°
2026-05-06 08:17 41.72493 10.02261 19700 ft 479 kts 12°
2026-05-06 08:17 41.75715 10.03435 20058 ft 481 kts 12°
2026-05-06 08:17 41.78954 10.04616 20402 ft 484 kts 12°
2026-05-06 08:18 41.82217 10.05806 20735 ft 487 kts 12°
2026-05-06 08:18 41.85490 10.07001 21050 ft 489 kts 12°
2026-05-06 08:18 41.88779 10.08206 21359 ft 491 kts 12°
2026-05-06 08:18 41.92081 10.09421 21659 ft 493 kts 13°
2026-05-06 08:19 41.95402 10.10646 21949 ft 495 kts 13°
2026-05-06 08:19 41.98734 10.11870 22243 ft 498 kts 13°
2026-05-06 08:19 42.02079 10.13100 22526 ft 500 kts 13°
2026-05-06 08:19 42.05442 10.14338 22802 ft 502 kts 13°
2026-05-06 08:20 42.08814 10.15579 23068 ft 504 kts 13°
2026-05-06 08:20 42.12216 10.16833 23331 ft 506 kts 13°
2026-05-06 08:20 42.15613 10.18084 23583 ft 507 kts 13°
2026-05-06 08:20 42.19015 10.19339 23467 ft 507 kts 13°
2026-05-06 08:21 42.22410 10.20595 23178 ft 505 kts 13°
2026-05-06 08:21 42.25746 10.21836 22900 ft 502 kts 13°
2026-05-06 08:21 42.29102 10.23089 22633 ft 500 kts 13°
2026-05-06 08:21 42.32451 10.24340 22364 ft 498 kts 13°
2026-05-06 08:22 42.35774 10.25582 22097 ft 495 kts 13°
2026-05-06 08:22 42.39088 10.26857 21837 ft 494 kts 14°
2026-05-06 08:22 42.42370 10.28203 21588 ft 492 kts 15°
2026-05-06 08:22 42.45628 10.29601 21331 ft 491 kts 15°
2026-05-06 08:23 42.48875 10.31023 21072 ft 489 kts 15°
2026-05-06 08:23 42.52104 10.32439 20820 ft 487 kts 15°
2026-05-06 08:23 42.55323 10.33836 20579 ft 485 kts 15°
2026-05-06 08:23 42.58543 10.35216 20331 ft 484 kts 15°
2026-05-06 08:24 42.61753 10.36576 20089 ft 483 kts 14°
2026-05-06 08:24 42.64955 10.37927 19850 ft 481 kts 14°
2026-05-06 08:24 42.68150 10.39277 19606 ft 479 kts 14°
2026-05-06 08:24 42.71327 10.40623 19361 ft 478 kts 14°
2026-05-06 08:25 42.74498 10.41970 19123 ft 476 kts 15°
2026-05-06 08:25 42.77653 10.43315 18906 ft 476 kts 15°
2026-05-06 08:25 42.80806 10.44668 18670 ft 475 kts 15°
2026-05-06 08:25 42.83951 10.46024 18437 ft 473 kts 15°
2026-05-06 08:26 42.87085 10.47377 18201 ft 472 kts 15°
2026-05-06 08:26 42.90210 10.48725 17934 ft 471 kts 15°
2026-05-06 08:26 42.93332 10.50065 17666 ft 469 kts 15°
2026-05-06 08:26 42.96438 10.51393 17265 ft 464 kts 14°
2026-05-06 08:27 42.99508 10.52706 16223 ft 463 kts 15°
2026-05-06 08:27 43.02566 10.54017 15326 ft 457 kts 15°
2026-05-06 08:27 43.05583 10.55320 14485 ft 452 kts 15°
2026-05-06 08:27 43.08523 10.56601 14259 ft 434 kts 15°
2026-05-06 08:28 43.11332 10.57832 14129 ft 414 kts 15°
2026-05-06 08:28 43.14011 10.59002 14018 ft 395 kts 15°
2026-05-06 08:28 43.16547 10.60102 13906 ft 380 kts 14°
2026-05-06 08:28 43.19024 10.61180 13784 ft 366 kts 14°
2026-05-06 08:29 43.21403 10.62214 13667 ft 353 kts 14°
2026-05-06 08:29 43.23709 10.63216 13496 ft 342 kts 14°
2026-05-06 08:29 43.25963 10.64191 13189 ft 337 kts 14°
2026-05-06 08:29 43.28184 10.65148 13104 ft 334 kts 14°
2026-05-06 08:30 43.30403 10.66125 12514 ft 340 kts 15°
2026-05-06 08:30 43.32688 10.67168 11738 ft 350 kts 15°
2026-05-06 08:30 43.35021 10.68252 11050 ft 357 kts 16°
2026-05-06 08:30 43.37331 10.69340 10935 ft 343 kts 17°
2026-05-06 08:31 43.39535 10.70384 10947 ft 327 kts 17°
2026-05-06 08:31 43.41680 10.71396 10425 ft 330 kts 17°
2026-05-06 08:31 43.43871 10.72419 9863 ft 335 kts 17°
2026-05-06 08:31 43.46083 10.73481 9284 ft 338 kts 21°
2026-05-06 08:32 43.48156 10.75022 8743 ft 339 kts 30°
2026-05-06 08:32 43.50172 10.76692 8187 ft 336 kts 30°
2026-05-06 08:32 43.52151 10.78337 7676 ft 328 kts 30°
2026-05-06 08:32 43.54052 10.79913 7529 ft 308 kts 30°
2026-05-06 08:33 43.55719 10.81614 7411 ft 293 kts 44°
2026-05-06 08:33 43.57108 10.83706 6677 ft 300 kts 51°
2026-05-06 08:33 43.58475 10.85917 5986 ft 304 kts 50°
2026-05-06 08:33 43.59853 10.88032 5839 ft 288 kts 49°
2026-05-06 08:34 43.61147 10.89996 5720 ft 275 kts 49°
2026-05-06 08:34 43.63699 10.93893 5040 ft 273 kts 49°
2026-05-06 08:34 43.64963 10.95833 4708 ft 273 kts 50°
2026-05-06 08:35 43.66232 10.97763 4472 ft 258 kts 50°
2026-05-06 08:35 43.67253 10.99344 6213 ft 202 kts 51°
2026-05-06 08:35 43.68167 11.00814 6179 ft 206 kts 52°
2026-05-06 08:35 43.69149 11.02450 5796 ft 230 kts 53°
2026-05-06 08:36 43.70124 11.04143 6367 ft 220 kts 54°
2026-05-06 08:36 43.70961 11.05758 7515 ft 193 kts 60°
2026-05-06 08:36 43.71699 11.07356 7622 ft 204 kts 61°
2026-05-06 08:36 43.72675 11.08996 6926 ft 230 kts 44°
2026-05-06 08:37 43.73911 11.10524 6200 ft 252 kts 42°
2026-05-06 08:37 43.75342 11.12064 5302 ft 268 kts 37°
2026-05-06 08:37 43.76777 11.13607 5014 ft 256 kts 42°
2026-05-06 08:37 43.78041 11.15370 4108 ft 267 kts 49°
2026-05-06 08:38 43.79100 11.17517 3304 ft 264 kts 83°
2026-05-06 08:38 43.79315 11.19810 3542 ft 216 kts 110°
2026-05-06 08:38 43.78610 11.21106 3810 ft 149 kts 167°
2026-05-06 08:38 43.77624 11.21230 3384 ft 145 kts 195°
2026-05-06 08:39 43.76724 11.20615 3017 ft 157 kts 223°
2026-05-06 08:39 43.75998 11.19303 2806 ft 181 kts 243°
2026-05-06 08:39 43.75794 11.17608 2792 ft 183 kts 273°
2026-05-06 08:39 43.76216 11.16008 2796 ft 173 kts 290°
2026-05-06 08:40 43.76932 11.14727 2568 ft 166 kts 319°
2026-05-06 08:40 43.78000 11.14722 2300 ft 164 kts 34°
2026-05-06 08:40 43.78649 11.16043 1589 ft 173 kts 68°
2026-05-06 08:40 43.79076 11.17600 959 ft 173 kts 70°
2026-05-06 08:41 43.79817 11.18814 550 ft 164 kts 39°
2026-05-06 08:41 43.80599 11.19862 160 ft 149 kts 57°
2026-05-06 08:41 43.81148 11.20723 138 ft 76 kts 49°
2026-05-06 08:41 43.81314 11.20984 146 ft 0 kts 47°